| time (UTC) | temp F | wind direction | speed knots | gust knots | rain 1hr in | rain 24hr in | rain mn in | humidity % | barometer mb |
| 20260507115006 | 42 | 288 | 0.9 | 2.6 | 0.00 | 0.25 | 0.00 | 78 | 1013.5 |
| 20260507114515 | 41 | 299 | 0.9 | 2.6 | 0.00 | 0.25 | 0.00 | 79 | 1013.5 |
| 20260507114004 | 41 | 352 | 0.9 | 1.7 | 0.00 | 0.25 | 0.00 | 79 | 1013.5 |
| 20260507113505 | 41 | 352 | 0.0 | 1.7 | 0.00 | 0.26 | 0.00 | 79 | 1013.5 |
| 20260507113012 | 40 | 352 | 0.0 | 1.7 | 0.00 | 0.26 | 0.00 | 80 | 1013.4 |
| 20260507112504 | 40 | 352 | 0.9 | 1.7 | 0.00 | 0.27 | 0.00 | 80 | 1013.4 |
| 20260507112009 | 40 | 352 | 0.0 | 1.7 | 0.00 | 0.27 | 0.00 | 81 | 1013.3 |
| 20260507111523 | 39 | 352 | 0.0 | 1.7 | 0.00 | 0.27 | 0.00 | 81 | 1013.3 |
| 20260507111006 | 39 | 352 | 0.0 | 1.7 | 0.00 | 0.27 | 0.00 | 82 | 1013.2 |
| 20260507110506 | 39 | 352 | 0.0 | 1.7 | 0.00 | 0.28 | 0.00 | 82 | 1013.2 |
| 20260507110004 | 39 | 352 | 0.0 | 1.7 | 0.00 | 0.28 | 0.00 | 82 | 1013.1 |
| 20260507105503 | 39 | 352 | 0.0 | 1.7 | 0.00 | 0.28 | 0.00 | 82 | 1013.0 |
| 20260507105003 | 39 | 352 | 0.0 | 1.7 | 0.00 | 0.29 | 0.00 | 82 | 1013.0 |
| 20260507104508 | 39 | 352 | 0.0 | 1.7 | 0.00 | 0.29 | 0.00 | 82 | 1013.0 |
| 20260507104004 | 39 | 360 | 0.0 | 1.7 | 0.00 | 0.30 | 0.00 | 81 | 1012.9 |
| 20260507103504 | 39 | 360 | 0.0 | 1.7 | 0.00 | 0.30 | 0.00 | 81 | 1012.9 |
| 20260507103010 | 39 | 360 | 0.0 | 1.7 | 0.00 | 0.30 | 0.00 | 80 | 1012.8 |
| 20260507102506 | 39 | 360 | 0.9 | 1.7 | 0.00 | 0.31 | 0.00 | 80 | 1012.8 |
| 20260507102010 | 39 | 360 | 0.9 | 1.7 | 0.00 | 0.31 | 0.00 | 80 | 1012.8 |
| 20260507101519 | 39 | 360 | 0.0 | 1.7 | 0.00 | 0.31 | 0.00 | 80 | 1012.7 |
| 20260507101005 | 39 | 360 | 0.0 | 1.7 | 0.00 | 0.31 | 0.00 | 80 | 1012.7 |
| 20260507100505 | 40 | 360 | 0.0 | 1.7 | 0.00 | 0.31 | 0.00 | 81 | 1012.7 |
| 20260507100022 | 40 | 360 | 0.0 | 1.7 | 0.00 | 0.31 | 0.00 | 80 | 1012.7 |
| 20260507095509 | 40 | 360 | 0.0 | 1.7 | 0.00 | 0.31 | 0.00 | 80 | 1012.7 |
| 20260507095008 | 40 | 360 | 0.0 | 1.7 | 0.00 | 0.32 | 0.00 | 80 | 1012.6 |
| 20260507094504 | 40 | 360 | 0.0 | 1.7 | 0.00 | 0.32 | 0.00 | 80 | 1012.7 |
| 20260507094004 | 40 | 360 | 0.0 | 1.7 | 0.00 | 0.32 | 0.00 | 80 | 1012.7 |
| 20260507093504 | 40 | 360 | 0.0 | 1.7 | 0.00 | 0.32 | 0.00 | 80 | 1012.7 |
| 20260507093010 | 41 | 360 | 0.0 | 1.7 | 0.00 | 0.32 | 0.00 | 80 | 1012.8 |
| 20260507092505 | 41 | 360 | 0.0 | 1.7 | 0.00 | 0.32 | 0.00 | 80 | 1012.8 |
| 20260507092008 | 41 | 360 | 0.9 | 1.7 | 0.00 | 0.32 | 0.00 | 79 | 1012.8 |
| 20260507091513 | 42 | 360 | 0.0 | 1.7 | 0.00 | 0.32 | 0.00 | 78 | 1012.9 |
| 20260507091008 | 42 | 360 | 0.0 | 1.7 | 0.00 | 0.32 | 0.00 | 76 | 1012.8 |
| 20260507090507 | 42 | 352 | 0.0 | 1.7 | 0.00 | 0.32 | 0.00 | 78 | 1012.7 |
| 20260507090031 | 42 | 337 | 0.0 | 1.7 | 0.00 | 0.32 | 0.00 | 77 | 1012.6 |
| 20260507085508 | 43 | 329 | 0.0 | 1.7 | 0.00 | 0.32 | 0.00 | 75 | 1012.5 |
| 20260507085010 | 43 | 308 | 0.0 | 1.7 | 0.00 | 0.32 | 0.00 | 75 | 1012.5 |
| 20260507084533 | 43 | 331 | 0.0 | 1.7 | 0.00 | 0.32 | 0.00 | 73 | 1012.6 |
| 20260507084009 | 43 | 331 | 0.0 | 1.7 | 0.00 | 0.32 | 0.00 | 74 | 1012.8 |
| 20260507083510 | 43 | 331 | 0.9 | 3.5 | 0.00 | 0.32 | 0.00 | 74 | 1012.7 |
| 20260507083004 | 43 | 329 | 0.0 | 3.5 | 0.00 | 0.32 | 0.00 | 73 | 1012.6 |
| 20260507082504 | 43 | 336 | 0.9 | 2.6 | 0.00 | 0.32 | 0.00 | 74 | 1012.6 |
| 20260507082006 | 43 | 293 | 0.0 | 3.5 | 0.00 | 0.32 | 0.00 | 73 | 1012.7 |
| 20260507081513 | 43 | 324 | 0.9 | 3.5 | 0.00 | 0.32 | 0.00 | 73 | 1012.7 |
| 20260507081005 | 43 | 309 | 1.7 | 3.5 | 0.00 | 0.32 | 0.00 | 73 | 1012.7 |
| 20260507080506 | 44 | 307 | 0.9 | 5.2 | 0.00 | 0.32 | 0.00 | 73 | 1012.8 |
| 20260507080017 | 44 | 319 | 0.9 | 5.2 | 0.00 | 0.32 | 0.00 | 72 | 1012.7 |
| 20260507075507 | 44 | 331 | 1.7 | 5.2 | 0.00 | 0.32 | 0.00 | 72 | 1012.7 |
| 20260507075010 | 44 | 307 | 0.9 | 6.1 | 0.00 | 0.32 | 0.00 | 72 | 1012.6 |
| 20260507074536 | 44 | 297 | 0.9 | 6.1 | 0.00 | 0.32 | 0.00 | 71 | 1012.6 |
| 20260507074008 | 44 | 10 | 0.9 | 2.6 | 0.00 | 0.32 | 0.00 | 72 | 1012.6 |
| 20260507073510 | 44 | 336 | 0.9 | 2.6 | 0.00 | 0.32 | 0.00 | 73 | 1012.6 |
| 20260507073025 | 45 | 311 | 0.9 | 4.3 | 0.00 | 0.32 | 0.00 | 75 | 1012.6 |
| 20260507072509 | 45 | 298 | 1.7 | 4.3 | 0.00 | 0.32 | 0.00 | 75 | 1012.5 |
| 20260507072012 | 45 | 298 | 1.7 | 4.3 | 0.00 | 0.32 | 0.00 | 75 | 1012.5 |
| 20260507071510 | 45 | 302 | 1.7 | 4.3 | 0.00 | 0.32 | 0.00 | 76 | 1012.5 |
| 20260507071004 | 45 | 323 | 0.9 | 3.5 | 0.00 | 0.32 | 0.00 | 77 | 1012.5 |
| 20260507070504 | 45 | 296 | 0.9 | 3.5 | 0.00 | 0.32 | 0.00 | 77 | 1012.5 |
| 20260507070013 | 45 | 288 | 0.9 | 3.5 | 0.00 | 0.32 | 0.00 | 78 | 1012.5 |
| 20260507065508 | 45 | 346 | 0.0 | 3.5 | 0.00 | 0.32 | 0.00 | 77 | 1012.4 |
| 20260507065009 | 45 | 321 | 0.9 | 3.5 | 0.00 | 0.32 | 0.00 | 77 | 1012.4 |
| 20260507064520 | 45 | 340 | 0.9 | 2.6 | 0.00 | 0.32 | 0.00 | 77 | 1012.4 |
| 20260507064008 | 44 | 316 | 0.9 | 2.6 | 0.00 | 0.32 | 0.00 | 77 | 1012.6 |
| 20260507063511 | 44 | 336 | 0.9 | 2.6 | 0.00 | 0.32 | 0.00 | 77 | 1012.6 |
| 20260507063028 | 44 | 312 | 0.9 | 3.5 | 0.00 | 0.32 | 0.00 | 76 | 1012.7 |
| 20260507062511 | 44 | 320 | 0.9 | 3.5 | 0.00 | 0.32 | 0.00 | 76 | 1012.7 |
| 20260507062013 | 45 | 323 | 0.9 | 4.3 | 0.00 | 0.32 | 0.00 | 76 | 1012.7 |
| 20260507061526 | 45 | 331 | 0.9 | 4.3 | 0.00 | 0.32 | 0.00 | 76 | 1012.7 |
| 20260507061007 | 45 | 319 | 1.7 | 3.5 | 0.00 | 0.32 | 0.00 | 76 | 1012.7 |
| 20260507060507 | 45 | 307 | 0.9 | 7.0 | 0.00 | 0.32 | 0.00 | 76 | 1012.7 |
| 20260507060011 | 45 | 305 | 1.7 | 7.0 | 0.00 | 0.32 | 0.00 | 76 | 1012.6 |
| 20260507055505 | 45 | 290 | 2.6 | 7.0 | 0.00 | 0.32 | 0.00 | 76 | 1012.7 |
| 20260507055004 | 45 | 295 | 2.6 | 6.1 | 0.00 | 0.32 | 0.00 | 77 | 1012.6 |
| 20260507054516 | 45 | 302 | 1.7 | 6.1 | 0.00 | 0.32 | 0.00 | 77 | 1012.5 |
| 20260507054004 | 46 | 293 | 1.7 | 7.0 | 0.00 | 0.32 | 0.00 | 77 | 1012.5 |
| 20260507053508 | 46 | 314 | 2.6 | 7.0 | 0.00 | 0.32 | 0.00 | 78 | 1012.6 |
| 20260507053022 | 46 | 317 | 3.5 | 8.7 | 0.00 | 0.32 | 0.00 | 77 | 1012.6 |
| 20260507052508 | 46 | 309 | 2.6 | 8.7 | 0.00 | 0.32 | 0.00 | 78 | 1012.5 |
| 20260507052010 | 46 | 279 | 1.7 | 7.8 | 0.00 | 0.32 | 0.00 | 80 | 1012.5 |
| 20260507051506 | 46 | 296 | 2.6 | 7.8 | 0.00 | 0.32 | 0.00 | 81 | 1012.4 |
| 20260507051002 | 46 | 299 | 3.5 | 7.0 | 0.00 | 0.32 | 0.00 | 83 | 1012.6 |
| 20260507050506 | 46 | 323 | 2.6 | 7.0 | 0.00 | 0.32 | 0.00 | 86 | 1012.4 |
| 20260507050008 | 46 | 315 | 1.7 | 4.3 | 0.00 | 0.32 | 0.00 | 87 | 1012.5 |
| 20260507045506 | 46 | 311 | 1.7 | 4.3 | 0.00 | 0.32 | 0.00 | 87 | 1012.4 |
| 20260507045006 | 46 | 338 | 0.9 | 2.6 | 0.00 | 0.32 | 0.00 | 88 | 1012.3 |
| 20260507044514 | 47 | 306 | 0.9 | 2.6 | 0.00 | 0.32 | 0.00 | 87 | 1012.3 |
| 20260507044009 | 47 | 305 | 0.0 | 1.7 | 0.00 | 0.32 | 0.00 | 87 | 1012.3 |
| 20260507043509 | 47 | 305 | 0.9 | 2.6 | 0.00 | 0.32 | 0.00 | 87 | 1012.3 |
| 20260507043003 | 47 | 305 | 0.9 | 3.5 | 0.00 | 0.32 | 0.00 | 87 | 1012.2 |
| 20260507042503 | 47 | 334 | 0.9 | 3.5 | 0.00 | 0.32 | 0.00 | 86 | 1012.2 |
| 20260507042003 | 47 | 329 | 0.9 | 2.6 | 0.00 | 0.32 | 0.00 | 87 | 1012.4 |
| 20260507041506 | 47 | 326 | 1.7 | 2.6 | 0.00 | 0.32 | 0.00 | 88 | 1012.3 |
| 20260507041003 | 47 | 311 | 0.9 | 2.6 | 0.00 | 0.32 | 0.00 | 88 | 1012.4 |
| 20260507040503 | 47 | 325 | 0.9 | 1.7 | 0.00 | 0.32 | 0.00 | 88 | 1012.2 |
| 20260507040008 | 47 | 324 | 0.9 | 2.6 | 0.00 | 0.32 | 0.00 | 89 | 1012.1 |
| 20260507035503 | 47 | 324 | 1.7 | 2.6 | 0.00 | 0.32 | 0.32 | 89 | 1012.2 |
| 20260507035006 | 47 | 329 | 0.9 | 3.5 | 0.00 | 0.32 | 0.32 | 90 | 1012.1 |
| 20260507034510 | 47 | 326 | 1.7 | 3.5 | 0.00 | 0.32 | 0.32 | 91 | 1012.2 |
| 20260507034007 | 46 | 86 | 0.0 | 1.7 | 0.00 | 0.32 | 0.32 | 92 | 1012.4 |
| 20260507033509 | 46 | 86 | 0.0 | 1.7 | 0.00 | 0.32 | 0.32 | 92 | 1012.5 |
| 20260507033019 | 46 | 86 | 0.0 | 1.7 | 0.00 | 0.32 | 0.32 | 92 | 1012.3 |
| 20260507032505 | 46 | 86 | 0.0 | 0.0 | 0.00 | 0.32 | 0.32 | 92 | 1012.5 |
| 20260507032011 | 46 | 86 | 0.0 | 0.0 | 0.00 | 0.32 | 0.32 | 91 | 1012.3 |
| 20260507031507 | 46 | 86 | 0.0 | 1.7 | 0.00 | 0.32 | 0.32 | 91 | 1012.5 |
| 20260507031003 | 46 | 86 | 0.0 | 1.7 | 0.00 | 0.32 | 0.32 | 91 | 1012.3 |
| 20260507030503 | 46 | 86 | 0.0 | 1.7 | 0.00 | 0.32 | 0.32 | 92 | 1012.1 |
| 20260507030004 | 46 | 86 | 0.0 | 1.7 | 0.00 | 0.32 | 0.32 | 92 | 1012.1 |
| 20260507025505 | 46 | 86 | 0.0 | 1.7 | 0.00 | 0.32 | 0.32 | 91 | 1012.1 |
| 20260507025003 | 46 | 86 | 0.0 | 1.7 | 0.00 | 0.32 | 0.32 | 91 | 1012.2 |
| 20260507024508 | 46 | 86 | 0.0 | 1.7 | 0.00 | 0.32 | 0.32 | 91 | 1012.2 |
| 20260507024005 | 47 | 86 | 0.0 | 1.7 | 0.00 | 0.32 | 0.32 | 91 | 1012.2 |
| 20260507023508 | 47 | 86 | 0.0 | 1.7 | 0.00 | 0.32 | 0.32 | 91 | 1012.0 |
| 20260507023013 | 47 | 86 | 0.9 | 1.7 | 0.00 | 0.32 | 0.32 | 91 | 1011.9 |
| 20260507022508 | 47 | 56 | 0.9 | 1.7 | 0.00 | 0.32 | 0.32 | 91 | 1012.1 |
| 20260507022010 | 48 | 56 | 0.0 | 1.7 | 0.00 | 0.32 | 0.32 | 91 | 1012.4 |
| 20260507021519 | 48 | 56 | 0.9 | 1.7 | 0.00 | 0.32 | 0.32 | 91 | 1012.5 |
| 20260507021009 | 48 | 56 | 0.0 | 1.7 | 0.00 | 0.32 | 0.32 | 91 | 1012.6 |
| 20260507020513 | 48 | 56 | 0.0 | 1.7 | 0.00 | 0.32 | 0.32 | 91 | 1012.5 |
| 20260507020006 | 48 | 56 | 0.0 | 1.7 | 0.00 | 0.32 | 0.32 | 91 | 1012.7 |
| 20260507015506 | 48 | 56 | 0.0 | 1.7 | 0.00 | 0.32 | 0.32 | 91 | 1012.9 |
| 20260507015003 | 48 | 93 | 0.0 | 1.7 | 0.00 | 0.32 | 0.32 | 90 | 1012.8 |
| 20260507014512 | 48 | 93 | 0.0 | 1.7 | 0.00 | 0.32 | 0.32 | 90 | 1012.5 |
| 20260507014004 | 48 | 221 | 0.0 | 2.6 | 0.00 | 0.32 | 0.32 | 90 | 1012.7 |
| 20260507013506 | 48 | 232 | 0.9 | 2.6 | 0.00 | 0.32 | 0.32 | 90 | 1012.5 |
| 20260507013013 | 48 | 339 | 0.0 | 1.7 | 0.00 | 0.32 | 0.32 | 90 | 1012.4 |
| 20260507012504 | 48 | 28 | 0.0 | 0.0 | 0.00 | 0.32 | 0.32 | 90 | 1012.5 |
| 20260507012007 | 48 | 28 | 0.0 | 0.0 | 0.00 | 0.32 | 0.32 | 90 | 1012.3 |
| 20260507011531 | 48 | 28 | 0.0 | 0.0 | 0.00 | 0.32 | 0.32 | 90 | 1012.8 |
| 20260507011007 | 49 | 28 | 0.0 | 1.7 | 0.00 | 0.32 | 0.32 | 90 | 1012.8 |
| 20260507010510 | 49 | 28 | 0.0 | 1.7 | 0.00 | 0.32 | 0.32 | 90 | 1012.6 |
| 20260507010022 | 48 | 28 | 0.0 | 1.7 | 0.00 | 0.32 | 0.32 | 89 | 1012.5 |
| 20260507005507 | 48 | 28 | 0.0 | 1.7 | 0.00 | 0.32 | 0.32 | 89 | 1012.3 |
| 20260507005008 | 49 | 87 | 0.0 | 1.7 | 0.00 | 0.32 | 0.32 | 90 | 1012.2 |
| 20260507004505 | 49 | 94 | 0.0 | 1.7 | 0.00 | 0.32 | 0.32 | 89 | 1012.2 |
| 20260507004005 | 49 | 94 | 0.0 | 1.7 | 0.00 | 0.32 | 0.32 | 89 | 1012.1 |
| 20260507003504 | 49 | 94 | 0.0 | 1.7 | 0.00 | 0.32 | 0.32 | 89 | 1012.0 |
| 20260507003015 | 49 | 94 | 0.0 | 1.7 | 0.00 | 0.32 | 0.32 | 89 | 1011.9 |
| 20260507002503 | 49 | 94 | 0.0 | 1.7 | 0.00 | 0.32 | 0.32 | 88 | 1011.8 |
| 20260507002008 | 49 | 94 | 0.0 | 1.7 | 0.00 | 0.32 | 0.32 | 87 | 1011.7 |
| 20260507001516 | 49 | 23 | 0.9 | 1.7 | 0.00 | 0.32 | 0.32 | 87 | 1011.6 |
| 20260507001008 | 49 | 91 | 0.9 | 1.7 | 0.00 | 0.32 | 0.32 | 87 | 1011.5 |
| 20260507000507 | 49 | 26 | 0.0 | 2.6 | 0.00 | 0.32 | 0.32 | 86 | 1011.5 |
| 20260507000023 | 49 | 26 | 0.0 | 2.6 | 0.00 | 0.32 | 0.32 | 86 | 1011.3 |
| 20260506235507 | 50 | 26 | 0.9 | 2.6 | 0.00 | 0.32 | 0.32 | 86 | 1011.1 |
| 20260506235007 | 50 | 9 | 0.9 | 2.6 | 0.00 | 0.32 | 0.32 | 85 | 1011.1 |
| 20260506234522 | 50 | 346 | 0.9 | 5.2 | 0.00 | 0.32 | 0.32 | 85 | 1011.1 |
| 20260506234011 | 50 | 346 | 0.9 | 7.8 | 0.00 | 0.32 | 0.32 | 85 | 1011.0 |
| 20260506233504 | 50 | 352 | 0.9 | 7.8 | 0.00 | 0.32 | 0.32 | 85 | 1010.8 |
| 20260506233006 | 50 | 13 | 0.9 | 2.6 | 0.00 | 0.32 | 0.32 | 85 | 1010.7 |
| 20260506232505 | 50 | 13 | 0.9 | 4.3 | 0.00 | 0.32 | 0.32 | 85 | 1010.8 |
| 20260506232006 | 50 | 360 | 2.6 | 4.3 | 0.00 | 0.32 | 0.32 | 85 | 1010.8 |
| 20260506231509 | 50 | 339 | 2.6 | 9.6 | 0.00 | 0.32 | 0.32 | 84 | 1010.8 |
| 20260506231009 | 50 | 352 | 4.3 | 9.6 | 0.00 | 0.32 | 0.32 | 84 | 1010.8 |
| 20260506230506 | 50 | 311 | 2.6 | 7.0 | 0.00 | 0.32 | 0.32 | 86 | 1010.6 |
| 20260506230017 | 50 | 56 | 1.7 | 5.2 | 0.00 | 0.32 | 0.32 | 86 | 1010.6 |
| 20260506225507 | 50 | 5 | 1.7 | 4.3 | 0.00 | 0.32 | 0.32 | 86 | 1010.6 |
| 20260506225006 | 50 | 9 | 2.6 | 4.3 | 0.00 | 0.32 | 0.32 | 86 | 1010.5 |
| 20260506224523 | 50 | 5 | 1.7 | 2.6 | 0.00 | 0.32 | 0.32 | 86 | 1010.5 |
| 20260506224012 | 51 | 26 | 0.9 | 4.3 | 0.00 | 0.32 | 0.32 | 86 | 1010.5 |
| 20260506223511 | 51 | 14 | 1.7 | 4.3 | 0.00 | 0.32 | 0.32 | 85 | 1010.5 |
| 20260506223024 | 51 | 311 | 0.9 | 7.0 | 0.00 | 0.32 | 0.32 | 85 | 1010.5 |
| 20260506222510 | 51 | 352 | 0.9 | 7.0 | 0.00 | 0.32 | 0.32 | 86 | 1010.5 |
| 20260506222006 | 51 | 352 | 2.6 | 5.2 | 0.00 | 0.32 | 0.32 | 86 | 1010.4 |
| 20260506221510 | 51 | 352 | 1.7 | 4.3 | 0.00 | 0.32 | 0.32 | 86 | 1010.3 |
| 20260506221003 | 51 | 319 | 1.7 | 4.3 | 0.00 | 0.32 | 0.32 | 86 | 1010.3 |
| 20260506220507 | 51 | 331 | 1.7 | 7.0 | 0.00 | 0.32 | 0.32 | 85 | 1010.3 |
| 20260506220014 | 51 | 324 | 3.5 | 7.0 | 0.00 | 0.32 | 0.32 | 86 | 1010.1 |
| 20260506215507 | 51 | 323 | 3.5 | 10.4 | 0.00 | 0.32 | 0.32 | 86 | 1010.1 |
| 20260506215007 | 51 | 323 | 3.5 | 10.4 | 0.00 | 0.32 | 0.32 | 85 | 1009.8 |
| 20260506214520 | 51 | 298 | 5.2 | 9.6 | 0.00 | 0.32 | 0.32 | 85 | 1009.7 |
| 20260506214012 | 52 | 315 | 5.2 | 10.4 | 0.00 | 0.32 | 0.32 | 86 | 1009.6 |
| 20260506213510 | 52 | 300 | 4.3 | 10.4 | 0.00 | 0.32 | 0.32 | 86 | 1009.4 |
| 20260506213022 | 52 | 325 | 3.5 | 10.4 | 0.00 | 0.32 | 0.32 | 85 | 1009.3 |
| 20260506212509 | 52 | 293 | 4.3 | 10.4 | 0.00 | 0.32 | 0.32 | 86 | 1009.1 |
| 20260506212014 | 52 | 344 | 4.3 | 12.2 | 0.00 | 0.32 | 0.32 | 87 | 1009.0 |
| 20260506211525 | 52 | 360 | 7.0 | 13.9 | 0.01 | 0.32 | 0.32 | 86 | 1009.1 |
| 20260506211010 | 53 | 317 | 4.3 | 13.9 | 0.01 | 0.32 | 0.32 | 87 | 1009.0 |
| 20260506210509 | 53 | 284 | 4.3 | 9.6 | 0.02 | 0.32 | 0.32 | 88 | 1008.8 |
| 20260506210014 | 53 | 348 | 4.3 | 11.3 | 0.02 | 0.32 | 0.32 | 89 | 1008.8 |
| 20260506205507 | 53 | 346 | 3.5 | 11.3 | 0.02 | 0.32 | 0.32 | 88 | 1008.7 |
| 20260506205007 | 53 | 34 | 5.2 | 9.6 | 0.02 | 0.32 | 0.32 | 89 | 1008.6 |
| 20260506204524 | 53 | 323 | 3.5 | 12.2 | 0.02 | 0.32 | 0.32 | 89 | 1008.5 |
| 20260506204007 | 53 | 321 | 5.2 | 12.2 | 0.02 | 0.32 | 0.32 | 89 | 1008.5 |
| 20260506203507 | 53 | 327 | 5.2 | 10.4 | 0.02 | 0.32 | 0.32 | 90 | 1008.3 |
| 20260506203026 | 54 | 336 | 2.6 | 7.8 | 0.02 | 0.32 | 0.32 | 90 | 1008.2 |
| 20260506202509 | 54 | 322 | 3.5 | 7.0 | 0.02 | 0.32 | 0.32 | 90 | 1008.0 |
| 20260506202014 | 54 | 338 | 2.6 | 7.8 | 0.02 | 0.32 | 0.32 | 89 | 1007.9 |
| 20260506201511 | 55 | 327 | 4.3 | 7.8 | 0.01 | 0.31 | 0.31 | 87 | 1007.8 |
| 20260506201001 | 56 | 330 | 1.7 | 12.2 | 0.01 | 0.31 | 0.31 | 87 | 1007.8 |
| 20260506200503 | 57 | 15 | 3.5 | 13.0 | 0.00 | 0.30 | 0.30 | 86 | 1007.7 |
| 20260506200012 | 59 | 336 | 7.8 | 13.0 | 0.00 | 0.30 | 0.30 | 90 | 1007.5 |
| 20260506195506 | 60 | 209 | 1.7 | 4.3 | 0.00 | 0.30 | 0.30 | 90 | 1007.1 |
| 20260506195007 | 60 | 225 | 0.0 | 3.5 | 0.00 | 0.30 | 0.30 | 91 | 1007.2 |
| 20260506194516 | 60 | 284 | 0.9 | 5.2 | 0.00 | 0.30 | 0.30 | 91 | 1007.3 |
| 20260506194012 | 59 | 254 | 1.7 | 6.1 | 0.00 | 0.30 | 0.30 | 91 | 1007.4 |
| 20260506193502 | 59 | 288 | 1.7 | 6.1 | 0.00 | 0.30 | 0.30 | 91 | 1007.4 |
| 20260506193004 | 59 | 269 | 2.6 | 4.3 | 0.00 | 0.30 | 0.30 | 1007.4 | |
| 20260506192503 | 59 | 241 | 1.7 | 5.2 | 0.00 | 0.30 | 0.30 | 92 | 1007.5 |
| 20260506192004 | 59 | 212 | 1.7 | 5.2 | 0.00 | 0.30 | 0.30 | 92 | 1007.4 |
| 20260506191504 | 59 | 236 | 1.7 | 7.8 | 0.00 | 0.30 | 0.30 | 92 | 1007.3 |
| 20260506191004 | 59 | 240 | 4.3 | 7.8 | 0.00 | 0.30 | 0.30 | 91 | 1007.2 |
| 20260506190505 | 59 | 188 | 1.7 | 7.8 | 0.00 | 0.30 | 0.30 | 92 | 1007.3 |
| 20260506190009 | 59 | 259 | 4.3 | 7.8 | 0.00 | 0.30 | 0.30 | 91 | 1007.4 |
| 20260506185505 | 59 | 269 | 4.3 | 7.0 | 0.00 | 0.30 | 0.30 | 91 | 1007.4 |
| 20260506185009 | 59 | 223 | 2.6 | 5.2 | 0.00 | 0.30 | 0.30 | 92 | 1007.4 |
| 20260506184522 | 59 | 254 | 2.6 | 5.2 | 0.00 | 0.30 | 0.30 | 92 | 1007.4 |
| 20260506184006 | 59 | 254 | 1.7 | 3.5 | 0.00 | 0.30 | 0.30 | 92 | 1007.4 |
| 20260506183507 | 59 | 225 | 0.9 | 2.6 | 0.00 | 0.30 | 0.30 | 92 | 1007.3 |
| 20260506183018 | 59 | 252 | 1.7 | 2.6 | 0.00 | 0.30 | 0.30 | 92 | 1007.3 |
| 20260506182507 | 59 | 288 | 0.9 | 2.6 | 0.00 | 0.30 | 0.30 | 92 | 1007.3 |
| 20260506182003 | 59 | 271 | 0.9 | 1.7 | 0.00 | 0.30 | 0.30 | 92 | 1007.3 |
| 20260506181504 | 59 | 261 | 0.9 | 1.7 | 0.00 | 0.30 | 0.30 | 93 | 1007.3 |
| 20260506181004 | 59 | 219 | 0.0 | 1.7 | 0.00 | 0.30 | 0.30 | 93 | 1007.3 |
| 20260506180504 | 59 | 244 | 0.0 | 1.7 | 0.00 | 0.30 | 0.30 | 92 | 1007.3 |
| 20260506180008 | 59 | 201 | 0.9 | 2.6 | 0.00 | 0.30 | 0.30 | 92 | 1007.4 |
| 20260506175504 | 59 | 180 | 0.9 | 2.6 | 0.00 | 0.30 | 0.30 | 92 | 1007.3 |
| 20260506175005 | 58 | 175 | 0.0 | 2.6 | 0.00 | 0.30 | 0.30 | 92 | 1007.3 |
| 20260506174512 | 58 | 207 | 0.0 | 1.7 | 0.00 | 0.30 | 0.30 | 1007.3 | |
| 20260506174010 | 58 | 125 | 0.0 | 1.7 | 0.00 | 0.30 | 0.30 | 93 | 1007.3 |
| 20260506173510 | 58 | 161 | 0.9 | 1.7 | 0.00 | 0.30 | 0.30 | 93 | 1007.3 |
| 20260506173017 | 58 | 132 | 0.9 | 1.7 | 0.00 | 0.30 | 0.30 | 93 | 1007.3 |
| 20260506172508 | 58 | 176 | 0.9 | 1.7 | 0.00 | 0.30 | 0.30 | 93 | 1007.3 |
| 20260506172013 | 58 | 102 | 0.0 | 1.7 | 0.00 | 0.30 | 0.30 | 93 | 1007.2 |
| 20260506171523 | 58 | 153 | 0.0 | 1.7 | 0.00 | 0.30 | 0.30 | 93 | 1007.2 |
| 20260506171003 | 57 | 153 | 0.9 | 1.7 | 0.00 | 0.30 | 0.30 | 93 | 1007.3 |
| 20260506170505 | 57 | 185 | 0.0 | 1.7 | 0.00 | 0.30 | 0.30 | 94 | 1007.4 |
| 20260506170009 | 57 | 176 | 0.0 | 1.7 | 0.00 | 0.30 | 0.30 | 93 | 1007.5 |
| 20260506165503 | 57 | 149 | 0.0 | 1.7 | 0.00 | 0.30 | 0.30 | 94 | 1007.5 |
| 20260506165007 | 57 | 87 | 0.0 | 1.7 | 0.00 | 0.30 | 0.30 | 94 | 1007.5 |
| 20260506164509 | 57 | 87 | 0.0 | 1.7 | 0.00 | 0.30 | 0.30 | 93 | 1007.6 |
| 20260506164004 | 57 | 87 | 0.0 | 1.7 | 0.00 | 0.30 | 0.30 | 93 | 1007.5 |
| 20260506163507 | 57 | 87 | 0.9 | 1.7 | 0.00 | 0.30 | 0.30 | 93 | 1007.6 |
| 20260506163017 | 57 | 88 | 0.0 | 1.7 | 0.00 | 0.30 | 0.30 | 93 | 1007.6 |
| 20260506162510 | 57 | 107 | 0.0 | 1.7 | 0.00 | 0.30 | 0.30 | 94 | 1007.7 |
| 20260506162010 | 57 | 147 | 0.9 | 1.7 | 0.00 | 0.30 | 0.30 | 94 | 1007.7 |
| 20260506161519 | 56 | 117 | 0.0 | 1.7 | 0.00 | 0.30 | 0.30 | 94 | 1007.6 |
| 20260506161011 | 56 | 132 | 0.0 | 2.6 | 0.00 | 0.30 | 0.30 | 93 | 1007.7 |
| 20260506160508 | 56 | 126 | 0.0 | 2.6 | 0.00 | 0.30 | 0.30 | 93 | 1007.7 |
| 20260506160026 | 56 | 143 | 0.0 | 1.7 | 0.00 | 0.30 | 0.30 | 93 | 1007.6 |
| 20260506155503 | 56 | 143 | 0.0 | 1.7 | 0.00 | 0.30 | 0.30 | 93 | 1007.7 |
| 20260506155006 | 56 | 167 | 0.0 | 1.7 | 0.01 | 0.30 | 0.30 | 93 | 1007.8 |
| 20260506154507 | 56 | 150 | 0.9 | 2.6 | 0.01 | 0.30 | 0.30 | 93 | 1007.7 |
| 20260506154003 | 56 | 162 | 0.9 | 3.5 | 0.02 | 0.30 | 0.30 | 93 | 1007.7 |
| 20260506153504 | 56 | 175 | 1.7 | 3.5 | 0.03 | 0.30 | 0.30 | 94 | 1007.7 |
| 20260506153012 | 56 | 134 | 0.9 | 2.6 | 0.03 | 0.30 | 0.30 | 93 | 1007.7 |
| 20260506152505 | 55 | 115 | 1.7 | 2.6 | 0.04 | 0.30 | 0.30 | 94 | 1007.6 |
| 20260506152006 | 55 | 159 | 0.9 | 2.6 | 0.04 | 0.30 | 0.30 | 94 | 1007.5 |
| 20260506151517 | 55 | 94 | 0.9 | 2.6 | 0.04 | 0.30 | 0.30 | 94 | 1007.4 |
| 20260506151008 | 55 | 96 | 1.7 | 2.6 | 0.05 | 0.30 | 0.30 | 94 | 1007.4 |
| 20260506150507 | 55 | 119 | 0.9 | 2.6 | 0.05 | 0.30 | 0.30 | 94 | 1007.6 |
| 20260506150022 | 55 | 118 | 0.9 | 2.6 | 0.06 | 0.30 | 0.30 | 93 | 1007.7 |
| 20260506145512 | 55 | 111 | 0.9 | 2.6 | 0.07 | 0.30 | 0.30 | 93 | 1007.6 |
| 20260506145014 | 55 | 114 | 0.0 | 1.7 | 0.07 | 0.29 | 0.29 | 93 | 1007.6 |
| 20260506144548 | 55 | 148 | 0.9 | 1.7 | 0.09 | 0.29 | 0.29 | 93 | 1007.6 |
| 20260506144005 | 55 | 123 | 0.0 | 1.7 | 0.09 | 0.28 | 0.28 | 93 | 1007.6 |
| 20260506143506 | 55 | 122 | 0.0 | 1.7 | 0.09 | 0.27 | 0.27 | 93 | 1007.7 |
| 20260506143012 | 55 | 176 | 0.9 | 2.6 | 0.09 | 0.27 | 0.27 | 93 | 1007.6 |
| 20260506142504 | 55 | 142 | 0.9 | 2.6 | 0.09 | 0.26 | 0.26 | 93 | 1007.4 |
| 20260506142004 | 55 | 155 | 0.9 | 2.6 | 0.09 | 0.26 | 0.26 | 93 | 1007.4 |
| 20260506141513 | 55 | 154 | 0.0 | 2.6 | 0.09 | 0.26 | 0.26 | 93 | 1007.5 |
| 20260506141008 | 55 | 147 | 0.9 | 2.6 | 0.08 | 0.25 | 0.25 | 93 | 1007.5 |
| 20260506140509 | 55 | 85 | 0.9 | 1.7 | 0.08 | 0.25 | 0.25 | 93 | 1007.4 |
| 20260506140024 | 55 | 117 | 0.9 | 2.6 | 0.07 | 0.24 | 0.24 | 93 | 1007.5 |
| 20260506135508 | 55 | 142 | 1.7 | 2.6 | 0.06 | 0.23 | 0.23 | 93 | 1007.6 |
| 20260506135009 | 56 | 147 | 0.0 | 2.6 | 0.06 | 0.22 | 0.22 | 93 | 1007.6 |
| 20260506134532 | 55 | 110 | 0.0 | 2.6 | 0.04 | 0.20 | 0.20 | 92 | 1007.7 |
| 20260506134008 | 56 | 127 | 0.9 | 5.2 | 0.04 | 0.19 | 0.19 | 92 | 1007.8 |
| 20260506133512 | 56 | 156 | 0.9 | 5.2 | 0.04 | 0.18 | 0.18 | 92 | 1007.7 |
| 20260506133029 | 56 | 134 | 0.0 | 3.5 | 0.05 | 0.18 | 0.18 | 93 | 1007.6 |
| 20260506132508 | 56 | 121 | 0.9 | 3.5 | 0.05 | 0.17 | 0.17 | 92 | 1007.6 |
| 20260506132006 | 56 | 172 | 1.7 | 3.5 | 0.06 | 0.17 | 0.17 | 93 | 1007.7 |
| 20260506131512 | 56 | 123 | 0.9 | 3.5 | 0.07 | 0.17 | 0.17 | 93 | 1007.5 |
| 20260506131006 | 56 | 117 | 0.9 | 3.5 | 0.08 | 0.17 | 0.17 | 93 | 1007.5 |
| 20260506130507 | 56 | 113 | 0.9 | 2.6 | 0.08 | 0.17 | 0.17 | 93 | 1007.6 |
| 20260506130018 | 56 | 94 | 0.9 | 2.6 | 0.09 | 0.17 | 0.17 | 93 | 1007.6 |
| 20260506125506 | 55 | 101 | 0.0 | 2.6 | 0.09 | 0.17 | 0.17 | 93 | 1007.6 |
| 20260506125006 | 55 | 77 | 0.9 | 2.6 | 0.09 | 0.16 | 0.16 | 93 | 1007.6 |
| 20260506124523 | 55 | 172 | 0.9 | 2.6 | 0.09 | 0.16 | 0.16 | 93 | 1007.9 |
| 20260506124006 | 55 | 101 | 0.0 | 2.6 | 0.08 | 0.15 | 0.15 | 93 | 1007.8 |
| 20260506123507 | 55 | 148 | 0.9 | 2.6 | 0.08 | 0.14 | 0.14 | 93 | 1008.0 |
| 20260506123036 | 55 | 107 | 1.7 | 3.5 | 0.07 | 0.13 | 0.13 | 93 | 1008.2 |
| 20260506122510 | 55 | 107 | 1.7 | 3.5 | 0.07 | 0.12 | 0.12 | 93 | 1008.5 |
| 20260506122012 | 55 | 115 | 1.7 | 3.5 | 0.06 | 0.11 | 0.11 | 93 | 1008.5 |
| 20260506121510 | 55 | 78 | 0.9 | 3.5 | 0.05 | 0.10 | 0.10 | 93 | 1008.3 |
| 20260506121007 | 55 | 117 | 0.9 | 3.5 | 0.04 | 0.09 | 0.09 | 93 | 1008.4 |
| 20260506120507 | 55 | 152 | 0.0 | 2.6 | 0.05 | 0.09 | 0.09 | 93 | 1008.4 |
| 20260506120024 | 55 | 142 | 0.0 | 2.6 | 0.04 | 0.08 | 0.08 | 92 | 1008.2 |
| 20260506115509 | 55 | 119 | 0.0 | 2.6 | 0.04 | 0.08 | 0.08 | 92 | 1008.1 |